Weather History for Elizabethton, TN

Change the Weather History Date:

Thursday, August 8, 2013

  Actual Average (KTRI) Record (KTRI)
Temperature  
Mean Temperature 74 °F 74 °F  
Max Temperature 82 °F 85 °F 96 °F (1980)
Min Temperature 66 °F 63 °F 48 °F (1989)
Degree Days  
Heating Degree Days 0 0  
Month to date heating degree days 0  
Since 1 June heating degree days 11  
Since 1 July heating degree days 0  
Cooling Degree Days 9 9  
Month to date cooling degree days 74  
Year to date cooling degree days 652  
Since 1 June cooling degree days 579  
Growing Degree Days 24 (Base 50)    
Moisture  
Dew Point 68 °F    
Average Humidity 86    
Maximum Humidity 100    
Minimum Humidity 65    
Precipitation  
Precipitation 0.00 in 0.13 in 1.97 in (1938)
Month to date precipitation 1.04  
Year to date precipitation 27.02  
Snow  
Snow 0.00 in 0.00 in - ()
Month to date snowfall 0.0  
Since 1 June snowfall 0.0  
Since 1 July snowfall 0.0  
Snow Depth -    
Sea Level Pressure  
Sea Level Pressure 30.07 in    
Wind  
Wind Speed 1 mph (North)    
Max Wind Speed 7 mph    
Max Gust Speed -    
Visibility 9 miles    
Events      
T = Trace of Precipitation, MM = Missing Value Source: NWS Daily Summary

Daily Weather History Graph

Daily Weather History Graph

Search for Another Location

Airport:

Trip Planner

Search our weather history database for the weather conditions in past years. The results will help you decide how hot, cold, wet, or windy it might be!

Date:

Astronomy

Aug. 08, 2013 Rise Set
Actual Time 6:41 AM EDT 8:26 PM EDT
Civil Twilight 6:13 AM EDT 8:54 PM EDT
Nautical Twilight 5:39 AM EDT 9:28 PM EDT
Astronomical Twilight 5:03 AM EDT 10:03 PM EDT
Moon 8:21 AM EDT (8/8) 9:10 PM EDT (8/8)
Length of Visible Light 14h 41m
Length of Day
13h 45m
Waxing Crescent, 3% of the Moon is Illuminated
Aug 8
Waxing Crescent
Aug 14
First Quarter
Aug 20
Full
Aug 28
Last Quarter
Sep 5
New

Hourly Weather History & Observations

Time (EDT) Temp. Heat Index Dew Point Humidity Pressure Visibility Wind Dir Wind Speed Gust Speed Precip Events Conditions
12:15 AM 66.2 °F - 64.4 °F 94% 30.09 in 9.0 mi Calm Calm - N/A   Clear
12:35 AM 66.2 °F - 64.4 °F 94% 30.09 in 10.0 mi Calm Calm - N/A   Partly Cloudy
12:55 AM 66.2 °F - 64.4 °F 94% 30.09 in 10.0 mi Calm Calm - N/A   Scattered Clouds
1:15 AM 66.2 °F - 64.4 °F 94% 30.08 in 10.0 mi Calm Calm - N/A   Scattered Clouds
1:35 AM 66.2 °F - 64.4 °F 94% 30.07 in 10.0 mi Calm Calm - N/A   Overcast
1:55 AM 66.2 °F - 64.4 °F 94% 30.07 in 10.0 mi Calm Calm - N/A   Overcast
2:15 AM 66.2 °F - 64.4 °F 94% 30.07 in 10.0 mi ENE 3.5 mph - N/A   Overcast
2:35 AM 66.2 °F - 64.4 °F 94% 30.07 in 10.0 mi Calm Calm - N/A   Mostly Cloudy
2:55 AM 66.2 °F - 64.4 °F 94% 30.07 in 10.0 mi NNE 3.5 mph - N/A   Partly Cloudy
3:15 AM 66.2 °F - 64.4 °F 94% 30.06 in 10.0 mi Calm Calm - N/A   Partly Cloudy
3:35 AM 66.2 °F - 64.4 °F 94% 30.07 in 10.0 mi NE 3.5 mph - N/A   Partly Cloudy
3:55 AM 66.2 °F - 64.4 °F 94% 30.07 in 10.0 mi Calm Calm - N/A   Mostly Cloudy
4:15 AM 66.2 °F - 66.2 °F 100% 30.07 in 10.0 mi Calm Calm - N/A   Light Drizzle
4:35 AM 66.2 °F - 66.2 °F 100% 30.07 in 10.0 mi Calm Calm - N/A   Mostly Cloudy
4:55 AM 66.2 °F - 66.2 °F 100% 30.07 in 9.0 mi Calm Calm - N/A   Overcast
5:15 AM 66.2 °F - 66.2 °F 100% 30.06 in 10.0 mi NE 3.5 mph - N/A   Overcast
5:35 AM 66.2 °F - 64.4 °F 94% 30.07 in 10.0 mi ENE 3.5 mph - N/A   Partly Cloudy
5:55 AM 66.2 °F - 64.4 °F 94% 30.06 in 10.0 mi Calm Calm - N/A   Clear
6:15 AM 66.2 °F - 64.4 °F 94% 30.06 in 10.0 mi NE 3.5 mph - N/A   Partly Cloudy
6:35 AM 66.2 °F - 64.4 °F 94% 30.06 in 10.0 mi Calm Calm - N/A   Scattered Clouds
6:55 AM 66.2 °F - 66.2 °F 100% 30.06 in 10.0 mi NE 3.5 mph - N/A   Overcast
7:15 AM 66.2 °F - 66.2 °F 100% 30.07 in 10.0 mi Calm Calm - N/A   Overcast
7:35 AM 66.2 °F - 66.2 °F 100% 30.08 in 10.0 mi Calm Calm - N/A   Overcast
7:55 AM 68.0 °F - 66.2 °F 94% 30.08 in 10.0 mi NE 3.5 mph - N/A   Overcast
8:15 AM 68.0 °F - 66.2 °F 94% 30.08 in 10.0 mi Calm Calm - N/A   Mostly Cloudy
8:35 AM 68.0 °F - 66.2 °F 94% 30.08 in 10.0 mi ENE 4.6 mph - N/A   Mostly Cloudy
8:55 AM 69.8 °F - 66.2 °F 88% 30.09 in 10.0 mi Calm Calm - N/A   Overcast
9:15 AM 71.6 °F - 68.0 °F 88% 30.08 in 10.0 mi ENE 3.5 mph - N/A   Overcast
9:35 AM 71.6 °F - 68.0 °F 88% 30.07 in 10.0 mi East 4.6 mph - N/A   Mostly Cloudy
9:55 AM 73.4 °F - 68.0 °F 83% 30.08 in 10.0 mi East 3.5 mph - N/A   Partly Cloudy
10:15 AM 75.2 °F - 68.0 °F 78% 30.08 in 10.0 mi Calm Calm - N/A   Partly Cloudy
10:35 AM 78.8 °F - 66.2 °F 65% 30.08 in 10.0 mi Calm Calm - N/A   Scattered Clouds
10:55 AM 78.8 °F - 66.2 °F 65% 30.08 in 10.0 mi Calm Calm - N/A   Overcast
11:15 AM 77.0 °F - 68.0 °F 74% 30.09 in 10.0 mi Calm Calm - N/A   Mostly Cloudy
11:35 AM 77.0 °F - 69.8 °F 78% 30.09 in 10.0 mi Calm Calm - N/A   Mostly Cloudy
11:55 AM 80.6 °F 83.2 °F 68.0 °F 65% 30.09 in 10.0 mi Calm Calm - N/A   Partly Cloudy
12:15 PM 82.4 °F 86.3 °F 69.8 °F 66% 30.08 in 10.0 mi Calm Calm - N/A   Clear
12:35 PM 82.4 °F 86.3 °F 69.8 °F 66% 30.08 in 10.0 mi Variable 3.5 mph - N/A   Clear
12:55 PM 82.4 °F 86.3 °F 69.8 °F 66% 30.08 in 10.0 mi Calm Calm - N/A   Scattered Clouds
1:15 PM 80.6 °F 83.9 °F 69.8 °F 70% 30.09 in 10.0 mi WNW 4.6 mph - N/A   Mostly Cloudy
1:35 PM 82.4 °F 87.2 °F 71.6 °F 70% 30.08 in 10.0 mi WNW 5.8 mph - N/A   Scattered Clouds
1:55 PM 82.4 °F 87.2 °F 71.6 °F 70% 30.08 in 10.0 mi WNW 5.8 mph - N/A   Partly Cloudy
2:15 PM 80.6 °F 84.6 °F 71.6 °F 74% 30.07 in 10.0 mi WNW 3.5 mph - N/A   Partly Cloudy
2:35 PM 80.6 °F 84.6 °F 71.6 °F 74% 30.07 in 10.0 mi West 4.6 mph - N/A   Scattered Clouds
2:55 PM 80.6 °F 84.6 °F 71.6 °F 74% 30.07 in 10.0 mi NW 4.6 mph - N/A   Mostly Cloudy
3:15 PM 80.6 °F 84.6 °F 71.6 °F 74% 30.06 in 10.0 mi WNW 6.9 mph - N/A   Partly Cloudy
3:35 PM 80.6 °F 84.6 °F 71.6 °F 74% 30.06 in 10.0 mi West 4.6 mph - N/A   Partly Cloudy
3:55 PM 80.6 °F 83.9 °F 69.8 °F 70% 30.06 in 10.0 mi West 4.6 mph - N/A   Clear
4:15 PM 80.6 °F 84.6 °F 71.6 °F 74% 30.05 in 9.0 mi West 4.6 mph - N/A   Partly Cloudy
4:35 PM 78.8 °F - 71.6 °F 78% 30.04 in 10.0 mi NNW 3.5 mph - N/A   Partly Cloudy
4:55 PM 80.6 °F 84.6 °F 71.6 °F 74% 30.04 in 10.0 mi Variable 3.5 mph - N/A   Clear
5:15 PM 80.6 °F 84.6 °F 71.6 °F 74% 30.05 in 10.0 mi Calm Calm - N/A   Clear
5:35 PM 78.8 °F - 71.6 °F 78% 30.05 in 10.0 mi WNW 4.6 mph - N/A   Clear
5:55 PM 78.8 °F - 71.6 °F 78% 30.05 in 10.0 mi NW 4.6 mph - N/A   Scattered Clouds
6:15 PM 78.8 °F - 71.6 °F 78% 30.05 in 10.0 mi Calm Calm - N/A   Mostly Cloudy
6:35 PM 78.8 °F - 71.6 °F 78% 30.05 in 10.0 mi Calm Calm - N/A   Partly Cloudy
6:55 PM 78.8 °F - 71.6 °F 78% 30.05 in 10.0 mi Calm Calm - N/A   Clear
7:15 PM 75.2 °F - 71.6 °F 89% 30.06 in 9.0 mi Calm Calm - N/A   Clear
7:35 PM 75.2 °F - 71.6 °F 89% 30.06 in 9.0 mi Calm Calm - N/A   Partly Cloudy
7:55 PM 75.2 °F - 73.4 °F 94% 30.06 in 7.0 mi Calm Calm - N/A   Mostly Cloudy
8:15 PM 73.4 °F - 71.6 °F 94% 30.06 in 9.0 mi Calm Calm - N/A   Mostly Cloudy
8:35 PM 73.4 °F - 71.6 °F 94% 30.05 in 9.0 mi Calm Calm - N/A   Partly Cloudy
8:55 PM 73.4 °F - 71.6 °F 94% 30.05 in 9.0 mi Calm Calm - N/A   Clear
9:15 PM 71.6 °F - 69.8 °F 94% 30.06 in 7.0 mi Calm Calm - N/A   Clear
9:35 PM 71.6 °F - 69.8 °F 94% 30.06 in 7.0 mi Calm Calm - N/A   Clear
9:55 PM 71.6 °F - 69.8 °F 94% 30.06 in 6.0 mi Calm Calm - N/A   Clear
10:15 PM 69.8 °F - 69.8 °F 100% 30.06 in 6.0 mi Calm Calm - N/A   Clear
10:35 PM 69.8 °F - 69.8 °F 100% 30.06 in 7.0 mi Calm Calm - N/A   Clear
10:55 PM 69.8 °F - 69.8 °F 100% 30.06 in 6.0 mi Calm Calm - N/A   Clear
11:15 PM 69.8 °F - 69.8 °F 100% 30.07 in 5.0 mi Calm Calm - N/A   Clear
11:35 PM 69.8 °F - 68.0 °F 94% 30.07 in 6.0 mi Calm Calm - N/A   Clear
11:55 PM 69.8 °F - 69.8 °F 100% 30.07 in 6.0 mi Calm Calm - N/A   Clear